| time (UTC) | temp F | wind direction | speed knots | gust knots | rain 1hr in | rain 24hr in | rain mn in | humidity % | barometer mb |
| 20260507095504 | 57 | 341 | 0.9 | 7.0 | 0.00 | 0.00 | 0.00 | 57 | 1016.3 |
| 20260507095005 | 57 | 335 | 4.3 | 7.8 | 0.00 | 0.00 | 0.00 | 57 | 1016.3 |
| 20260507094504 | 56 | 343 | 3.5 | 8.7 | 0.00 | 0.00 | 0.00 | 58 | 1016.3 |
| 20260507094005 | 57 | 0 | 2.6 | 6.1 | 0.00 | 0.00 | 0.00 | 59 | 1016.3 |
| 20260507093504 | 57 | 3 | 3.5 | 7.0 | 0.00 | 0.00 | 0.00 | 59 | 1016.3 |
| 20260507093004 | 57 | 3 | 4.3 | 5.2 | 0.00 | 0.00 | 0.00 | 58 | 1016.3 |
| 20260507092504 | 56 | 4 | 2.6 | 6.1 | 0.00 | 0.00 | 0.00 | 59 | 1016.3 |
| 20260507092004 | 56 | 355 | 4.3 | 7.0 | 0.00 | 0.00 | 0.00 | 60 | 1016.2 |
| 20260507091504 | 56 | 355 | 1.7 | 6.1 | 0.00 | 0.00 | 0.00 | 58 | 1016.2 |
| 20260507091004 | 56 | 355 | 4.3 | 7.0 | 0.00 | 0.00 | 0.00 | 60 | 1016.2 |
| 20260507085504 | 55 | 351 | 2.6 | 7.0 | 0.00 | 0.00 | 0.00 | 62 | 1016.1 |
| 20260507085005 | 55 | 3 | 2.6 | 5.2 | 0.00 | 0.00 | 0.00 | 63 | 1016.0 |
| 20260507084008 | 54 | 3 | 2.6 | 6.1 | 0.00 | 0.00 | 0.00 | 62 | 1016.0 |
| 20260507083508 | 54 | 3 | 2.6 | 5.2 | 0.00 | 0.00 | 0.00 | 63 | 1016.0 |
| 20260507082009 | 54 | 3 | 1.7 | 2.6 | 0.00 | 0.00 | 0.00 | 65 | 1016.2 |
| 20260507081508 | 54 | 4 | 2.6 | 5.2 | 0.00 | 0.00 | 0.00 | 67 | 1016.1 |
| 20260507081008 | 54 | 5 | 4.3 | 7.8 | 0.00 | 0.00 | 0.00 | 66 | 1016.0 |
| 20260507080008 | 54 | 4 | 1.7 | 5.2 | 0.00 | 0.00 | 0.00 | 67 | 1016.1 |
| 20260507075508 | 53 | 0 | 2.6 | 5.2 | 0.00 | 0.00 | 0.00 | 68 | 1016.0 |
| 20260507074008 | 52 | 0 | 1.7 | 6.1 | 0.00 | 0.00 | 0.00 | 70 | 1015.9 |
| 20260507073508 | 52 | 0 | 2.6 | 6.1 | 0.00 | 0.00 | 0.00 | 70 | 1015.9 |
| 20260507073008 | 52 | 0 | 4.3 | 7.0 | 0.00 | 0.00 | 0.00 | 70 | 1015.8 |
| 20260507072508 | 52 | 355 | 2.6 | 7.0 | 0.00 | 0.00 | 0.00 | 70 | 1015.8 |
| 20260507072009 | 52 | 355 | 4.3 | 6.1 | 0.00 | 0.00 | 0.00 | 70 | 1015.8 |
| 20260507062008 | 49 | 3 | 2.6 | 4.3 | 0.00 | 0.00 | 0.00 | 78 | 1015.8 |
| 20260507061508 | 49 | 4 | 2.6 | 4.3 | 0.00 | 0.00 | 0.00 | 79 | 1015.8 |
| 20260507054508 | 47 | 4 | 4.3 | 6.1 | 0.00 | 0.00 | 0.00 | 85 | 1015.4 |
| 20260507054008 | 47 | 3 | 2.6 | 5.2 | 0.00 | 0.00 | 0.00 | 86 | 1015.3 |
| 20260507052508 | 45 | 4 | 0.0 | 0.0 | 0.00 | 0.00 | 0.00 | 88 | 1015.3 |
| 20260507052008 | 45 | 3 | 0.0 | 0.0 | 0.00 | 0.00 | 0.00 | 89 | 1015.3 |
| 20260507051507 | 45 | 3 | 0.0 | 0.0 | 0.00 | 0.00 | 0.00 | 89 | 1015.2 |
| 20260507051008 | 44 | 4 | 0.0 | 1.7 | 0.00 | 0.00 | 0.00 | 89 | 1015.2 |
| 20260507044007 | 44 | 4 | 0.9 | 2.6 | 0.00 | 0.00 | 0.00 | 88 | 1014.8 |
| 20260507043507 | 44 | 4 | 0.9 | 2.6 | 0.00 | 0.00 | 0.00 | 88 | 1014.8 |
| 20260507043008 | 44 | 3 | 0.9 | 1.7 | 0.00 | 0.00 | 0.00 | 88 | 1014.8 |
| 20260507042508 | 44 | 3 | 0.9 | 1.7 | 0.00 | 0.00 | 0.00 | 88 | 1014.7 |
| 20260507042008 | 44 | 3 | 0.9 | 1.7 | 0.00 | 0.00 | 0.00 | 87 | 1014.7 |
| 20260507035508 | 45 | 4 | 0.9 | 1.7 | 0.00 | 0.00 | 0.00 | 87 | 1014.6 |
| 20260507035007 | 45 | 2 | 0.9 | 2.6 | 0.00 | 0.00 | 0.00 | 86 | 1014.6 |
| 20260507034508 | 45 | 3 | 0.9 | 1.7 | 0.00 | 0.00 | 0.00 | 86 | 1014.6 |
| 20260507033007 | 45 | 4 | 0.9 | 2.6 | 0.00 | 0.00 | 0.00 | 86 | 1014.4 |
| 20260507032507 | 45 | 3 | 1.7 | 2.6 | 0.00 | 0.00 | 0.00 | 86 | 1014.4 |
| 20260507025007 | 45 | 4 | 0.0 | 2.6 | 0.00 | 0.00 | 0.00 | 85 | 1014.2 |
| 20260507020007 | 45 | 4 | 0.9 | 1.7 | 0.00 | 0.00 | 0.00 | 84 | 1014.0 |
| 20260507015507 | 45 | 3 | 0.9 | 2.6 | 0.00 | 0.00 | 0.00 | 84 | 1013.9 |
| 20260507015007 | 45 | 3 | 0.9 | 2.6 | 0.00 | 0.00 | 0.00 | 84 | 1013.8 |
| 20260507014507 | 45 | 4 | 1.7 | 2.6 | 0.00 | 0.00 | 0.00 | 84 | 1013.8 |
| 20260507014007 | 46 | 3 | 0.9 | 2.6 | 0.00 | 0.00 | 0.00 | 84 | 1013.8 |
| 20260507013507 | 46 | 3 | 0.9 | 2.6 | 0.00 | 0.00 | 0.00 | 84 | 1013.8 |
| 20260507013007 | 46 | 3 | 0.9 | 5.2 | 0.00 | 0.00 | 0.00 | 84 | 1013.8 |
| 20260507012507 | 46 | 3 | 1.7 | 4.3 | 0.00 | 0.00 | 0.00 | 84 | 1013.8 |
| 20260507012007 | 46 | 4 | 1.7 | 2.6 | 0.00 | 0.00 | 0.00 | 84 | 1013.8 |
| 20260507011507 | 46 | 3 | 1.7 | 2.6 | 0.00 | 0.00 | 0.00 | 84 | 1013.7 |
| 20260507010007 | 46 | 3 | 0.9 | 2.6 | 0.00 | 0.00 | 0.00 | 84 | 1013.7 |
| 20260507005507 | 46 | 3 | 1.7 | 4.3 | 0.00 | 0.00 | 0.00 | 85 | 1013.7 |
| 20260507005007 | 46 | 3 | 1.7 | 2.6 | 0.00 | 0.00 | 0.00 | 85 | 1013.7 |
| 20260507002007 | 47 | 4 | 1.7 | 4.3 | 0.00 | 0.00 | 0.00 | 84 | 1013.7 |
| 20260507001507 | 47 | 3 | 1.7 | 5.2 | 0.00 | 0.00 | 0.00 | 85 | 1013.7 |
| 20260507001008 | 47 | 4 | 0.9 | 5.2 | 0.00 | 0.00 | 0.00 | 85 | 1013.7 |
| 20260507000007 | 47 | 3 | 1.7 | 5.2 | 0.00 | 0.00 | 0.00 | 85 | 1013.6 |
| 20260506235506 | 47 | 4 | 2.6 | 5.2 | 0.00 | 0.00 | 0.00 | 84 | 1013.6 |
| 20260506235007 | 47 | 3 | 2.6 | 6.1 | 0.00 | 0.00 | 0.00 | 84 | 1013.6 |
| 20260506233007 | 48 | 355 | 2.6 | 6.1 | 0.00 | 0.00 | 0.00 | 84 | 1013.3 |
| 20260506232506 | 48 | 355 | 1.7 | 4.3 | 0.00 | 0.00 | 0.00 | 83 | 1013.4 |
| 20260506232007 | 48 | 355 | 2.6 | 5.2 | 0.00 | 0.00 | 0.00 | 83 | 1013.3 |
| 20260506231507 | 48 | 355 | 1.7 | 17.4 | 0.00 | 0.00 | 0.00 | 83 | 1013.4 |
| 20260506231006 | 48 | 355 | 1.7 | 5.2 | 0.00 | 0.00 | 0.00 | 83 | 1013.3 |
| 20260506225007 | 48 | 0 | 2.6 | 6.1 | 0.00 | 0.00 | 0.00 | 82 | 1013.3 |
| 20260506222507 | 49 | 0 | 2.6 | 7.0 | 0.00 | 0.00 | 0.00 | 79 | 1013.2 |
| 20260506222007 | 49 | 0 | 2.6 | 5.2 | 0.00 | 0.00 | 0.00 | 79 | 1013.2 |
| 20260506214006 | 51 | 4 | 2.6 | 6.1 | 0.00 | 0.00 | 0.00 | 75 | 1012.8 |
| 20260506213506 | 51 | 4 | 2.6 | 6.1 | 0.00 | 0.00 | 0.00 | 74 | 1012.8 |
| 20260506212007 | 51 | 0 | 6.1 | 7.8 | 0.00 | 0.00 | 0.00 | 72 | 1012.7 |
| 20260506210006 | 52 | 2 | 3.5 | 8.7 | 0.00 | 0.00 | 0.00 | 70 | 1012.7 |
| 20260506202007 | 53 | 24 | 2.6 | 6.1 | 0.00 | 0.00 | 0.00 | 68 | 1012.5 |
| 20260506201506 | 53 | 3 | 2.6 | 5.2 | 0.00 | 0.00 | 0.00 | 68 | 1012.4 |
| 20260506201006 | 53 | 3 | 2.6 | 7.0 | 0.00 | 0.00 | 0.00 | 67 | 1012.3 |
| 20260506200006 | 54 | 20 | 1.7 | 2.6 | 0.00 | 0.00 | 0.00 | 67 | 1012.2 |
| 20260506195506 | 54 | 22 | 1.7 | 5.2 | 0.00 | 0.00 | 0.00 | 67 | 1012.2 |
| 20260506192006 | 55 | 62 | 1.7 | 6.1 | 0.00 | 0.00 | 0.00 | 65 | 1011.7 |
| 20260506191505 | 55 | 69 | 1.7 | 4.3 | 0.00 | 0.00 | 0.00 | 64 | 1011.7 |
| 20260506191007 | 55 | 69 | 1.7 | 4.3 | 0.00 | 0.00 | 0.00 | 64 | 1011.7 |
| 20260506190006 | 55 | 71 | 1.7 | 6.1 | 0.00 | 0.00 | 0.00 | 64 | 1011.6 |
| 20260506182505 | 55 | 4 | 3.5 | 6.1 | 0.00 | 0.00 | 0.00 | 63 | 1011.1 |
| 20260506182006 | 56 | 37 | 2.6 | 5.2 | 0.00 | 0.00 | 0.00 | 63 | 1011.1 |
| 20260506181506 | 56 | 37 | 0.9 | 4.3 | 0.00 | 0.00 | 0.00 | 62 | 1011.0 |
| 20260506181006 | 56 | 37 | 0.9 | 5.2 | 0.00 | 0.00 | 0.00 | 62 | 1010.9 |
| 20260506175505 | 56 | 56 | 1.7 | 6.1 | 0.00 | 0.00 | 0.00 | 59 | 1010.6 |
| 20260506174006 | 56 | 60 | 2.6 | 4.3 | 0.00 | 0.00 | 0.00 | 55 | 1010.5 |
| 20260506173506 | 56 | 61 | 1.7 | 6.1 | 0.00 | 0.00 | 0.00 | 55 | 1010.4 |
| 20260506170005 | 57 | 53 | 3.5 | 7.0 | 0.00 | 0.00 | 0.00 | 52 | 1010.1 |
| 20260506165505 | 57 | 13 | 2.6 | 6.1 | 0.00 | 0.00 | 0.00 | 50 | 1010.1 |
| 20260506165006 | 57 | 344 | 2.6 | 6.1 | 0.00 | 0.00 | 0.00 | 50 | 1010.1 |
| 20260506153505 | 58 | 93 | 2.6 | 7.0 | 0.00 | 0.00 | 0.00 | 50 | 1010.0 |
| 20260506153005 | 59 | 95 | 1.7 | 5.2 | 0.00 | 0.00 | 0.00 | 48 | 1009.9 |
| 20260506152506 | 59 | 102 | 5.2 | 11.3 | 0.00 | 0.00 | 0.00 | 46 | 1009.9 |
| 20260506152006 | 59 | 82 | 1.7 | 6.1 | 0.00 | 0.00 | 0.00 | 45 | 1009.9 |
| 20260506151505 | 59 | 13 | 5.2 | 7.8 | 0.00 | 0.00 | 0.00 | 45 | 1009.9 |
| 20260506151006 | 59 | 16 | 4.3 | 11.3 | 0.00 | 0.00 | 0.00 | 45 | 1009.9 |
| 20260506145506 | 59 | 64 | 4.3 | 10.4 | 0.00 | 0.00 | 0.00 | 45 | 1009.7 |
| 20260506145006 | 59 | 82 | 4.3 | 11.3 | 0.00 | 0.00 | 0.00 | 44 | 1009.7 |
| 20260506144505 | 59 | 32 | 7.8 | 11.3 | 0.00 | 0.00 | 0.00 | 44 | 1009.7 |
| 20260506134005 | 59 | 56 | 5.2 | 11.3 | 0.00 | 0.00 | 0.00 | 47 | 1009.7 |
| 20260506133505 | 59 | 35 | 4.3 | 10.4 | 0.00 | 0.00 | 0.00 | 47 | 1009.6 |
| 20260506133005 | 59 | 15 | 4.3 | 7.8 | 0.00 | 0.00 | 0.00 | 48 | 1009.6 |
| 20260506132505 | 59 | 72 | 4.3 | 10.4 | 0.00 | 0.00 | 0.00 | 47 | 1009.6 |
| 20260506132005 | 59 | 64 | 5.2 | 10.4 | 0.00 | 0.00 | 0.00 | 46 | 1009.6 |
| 20260506131505 | 59 | 43 | 3.5 | 8.7 | 0.00 | 0.00 | 0.00 | 46 | 1009.6 |
| 20260506131005 | 59 | 71 | 4.3 | 10.4 | 0.00 | 0.00 | 0.00 | 47 | 1009.6 |
| 20260506130005 | 59 | 20 | 6.1 | 13.9 | 0.00 | 0.00 | 0.00 | 47 | 1009.6 |
| 20260506125504 | 59 | 65 | 5.2 | 8.7 | 0.00 | 0.00 | 0.00 | 47 | 1009.6 |
| 20260506124006 | 58 | 38 | 5.2 | 10.4 | 0.00 | 0.00 | 0.00 | 48 | 1009.6 |
| 20260506123505 | 58 | 7 | 6.1 | 10.4 | 0.00 | 0.00 | 0.00 | 49 | 1009.5 |
| 20260506123005 | 58 | 56 | 4.3 | 11.3 | 0.00 | 0.00 | 0.00 | 49 | 1009.4 |
| 20260506122504 | 58 | 15 | 5.2 | 8.7 | 0.00 | 0.00 | 0.00 | 50 | 1009.5 |
| 20260506122005 | 58 | 17 | 2.6 | 7.8 | 0.00 | 0.00 | 0.00 | 53 | 1009.5 |
| 20260506115004 | 59 | 354 | 5.2 | 13.0 | 0.00 | 0.00 | 0.00 | 53 | 1009.3 |
| 20260506114505 | 58 | 74 | 3.5 | 7.0 | 0.00 | 0.00 | 0.00 | 53 | 1009.4 |
| 20260506114005 | 58 | 13 | 4.3 | 10.4 | 0.00 | 0.00 | 0.00 | 50 | 1009.5 |
| 20260506113505 | 58 | 19 | 4.3 | 8.7 | 0.00 | 0.00 | 0.00 | 51 | 1009.5 |
| 20260506110005 | 56 | 347 | 4.3 | 7.0 | 0.00 | 0.00 | 0.00 | 64 | 1009.5 |
| 20260506105504 | 56 | 8 | 6.1 | 11.3 | 0.00 | 0.00 | 0.00 | 64 | 1009.5 |